Weather History for Ames, IA

Change the Weather History Date:

Thursday, November 3, 2011

  Actual Average Record
Temperature  
Mean Temperature 38 °F 43 °F  
Max Temperature 51 °F 54 °F 75 °F (2008)
Min Temperature 25 °F 33 °F 17 °F (2006)
Degree Days  
Heating Degree Days 27 22  
Month to date heating degree days 59 65  
Since 1 July heating degree days 617 661  
Cooling Degree Days 0 0  
Month to date cooling degree days 0 0  
Year to date cooling degree days 973 752  
Moisture  
Dew Point 30 °F    
Average Humidity 67    
Maximum Humidity 92    
Minimum Humidity 42    
Precipitation  
Precipitation 0.00 in 0.10 in 2.96 in (2003)
Month to date precipitation 0.67 0.29  
Year to date precipitation 26.85  
Sea Level Pressure  
Sea Level Pressure 30.23 in    
Wind  
Wind Speed 11 mph (North)    
Max Wind Speed 23 mph    
Max Gust Speed 29 mph    
Visibility 10 miles    
Events      
T = Trace of Precipitation, MM = Missing Value Source: NWS Daily Summary

Daily Weather History Graph

Daily Weather History Graph

Search for Another Location

Airport:

Trip Planner

Search our weather history database for the weather conditions in past years. The results will help you decide how hot, cold, wet, or windy it might be!

Date:

Astronomy

Nov. 03, 2011 Rise Set
Actual Time 7:49 AM CDT 6:06 PM CDT
Civil Twilight 7:20 AM CDT 6:35 PM CDT
Nautical Twilight 6:47 AM CDT 7:08 PM CDT
Astronomical Twilight 6:14 AM CDT 7:40 PM CDT
Moon 2:36 PM CDT (11/3) 12:55 AM CDT (11/3)
Length of Visible Light 11h 15m
Length of Day
10h 16m
First Quarter, 60% of the Moon is Illuminated
Nov 3
First Quarter
Nov 10
Full
Nov 18
Last Quarter
Nov 25
New
Dec 2
First Quarter

Hourly Weather History & Observations

Time (CDT) Temp. Windchill Dew Point Humidity Pressure Visibility Wind Dir Wind Speed Gust Speed Precip Events Conditions
12:53 AM 39.9 °F 32.1 °F 33.1 °F 77% 30.16 in 10.0 mi North 13.8 mph - N/A   Overcast
1:53 AM 39.9 °F 31.8 °F 32.0 °F 73% 30.15 in 10.0 mi North 15.0 mph 21.9 mph N/A   Overcast
2:53 AM 39.0 °F 29.3 °F 32.0 °F 76% 30.14 in 10.0 mi North 19.6 mph 25.3 mph N/A   Overcast
3:53 AM 39.0 °F 29.3 °F 30.9 °F 73% 30.13 in 10.0 mi North 19.6 mph 27.6 mph N/A   Mostly Cloudy
5:53 AM 37.0 °F 26.4 °F 30.0 °F 76% 30.19 in 10.0 mi North 20.7 mph 25.3 mph N/A   Clear
6:53 AM 36.0 °F 25.6 °F 28.9 °F 76% 30.22 in 10.0 mi North 18.4 mph 25.3 mph N/A   Clear
7:53 AM 37.0 °F 27.4 °F 28.9 °F 73% 30.24 in 10.0 mi North 17.3 mph 25.3 mph N/A   Clear
8:53 AM 35.1 °F 25.2 °F 28.9 °F 78% 30.25 in 10.0 mi North 16.1 mph - N/A   Clear
9:53 AM 39.9 °F 32.5 °F 30.9 °F 70% 30.25 in 10.0 mi North 12.7 mph 19.6 mph N/A   Clear
10:53 AM 44.1 °F 38.1 °F 32.0 °F 63% 30.27 in 10.0 mi NNE 11.5 mph - N/A   Clear
11:53 AM 46.9 °F - 32.0 °F 56% 30.26 in 10.0 mi NNE 11.5 mph - N/A   Clear
1:53 PM 50.0 °F - 30.9 °F 48% 30.23 in 10.0 mi North 15.0 mph - N/A   Clear
2:53 PM 50.0 °F - 30.0 °F 46% 30.22 in 10.0 mi North 18.4 mph 25.3 mph N/A   Clear
3:53 PM 50.0 °F - 28.9 °F 44% 30.22 in 10.0 mi NNE 12.7 mph 20.7 mph N/A   Clear
4:53 PM 48.9 °F - 30.9 °F 50% 30.24 in 10.0 mi North 13.8 mph - N/A   Clear
6:53 PM 41.0 °F 38.0 °F 30.0 °F 65% 30.27 in 10.0 mi NNW 4.6 mph - N/A   Clear
7:53 PM 36.0 °F 32.1 °F 28.9 °F 76% 30.28 in 10.0 mi NNW 4.6 mph - N/A   Clear
8:53 PM 28.9 °F - 26.1 °F 89% 30.30 in 10.0 mi Calm Calm - N/A   Clear
9:53 PM 28.9 °F - 26.1 °F 89% 30.29 in 10.0 mi Calm Calm - N/A   Clear
10:53 PM 33.1 °F - 28.0 °F 82% 30.30 in 10.0 mi Calm Calm - N/A   Clear
11:53 PM 26.1 °F - 24.1 °F 92% 30.30 in 10.0 mi Calm Calm - N/A   Clear